Location: Fours
(44.3167°N, 6.7000°E)
Time: 08:53:42
(UTC+00:00)

Cosmos 2369 Rocket - Pass Details

Date: 30 November 2020
Orbit: 829 x 852 km, 71.0° (Epoch: 25 January)

Event Time Altitude Azimuth Distance (km) Brightness Sun altitude
Rises 16:22:44 0° 342° (NNW) 3,424 5.3 -5.1°
Reaches altitude 10° 16:25:40 10° 355° (N) 2,482 4.4 -5.6°
Maximum altitude 16:30:19 25° 50° (NE) 1,642 3.2 -6.3°
Drops below altitude 10° 16:34:55 10° 105° (ESE) 2,459 4.2 -7.1°
Sets 16:37:47 0° 118° (ESE) 3,386 5.0 -7.6°
